When you browse on this site, cookies collect data to enhance your experience and personalize the content and advertising you see.
Visit our Privacy Policy to learn more. By continuing to use the site, you agree to this use of cookies and data.
  • In Hungary
  • List of Countries
  • For 7 days
  • Water Temperature
  • Weather Map
  • News
  • Weather Widgets
  • user-avatar
    Login

    Hourly Weather Maloe Makarovo

    Today, 24 October, Thursday

    Time Temperature Precipitation Wind Pressure Humidity
    00:00 +9°C° 0 mm 2 mps 749 mmHg 90%
    01:00 +9°C° 0 mm 2 mps 750 mmHg 90%
    02:00 +9°C° 0 mm 2 mps 750 mmHg 90%
    03:00 +8°C° 0 mm 2 mps 750 mmHg 91%
    04:00 +8°C° 0 mm 2 mps 750 mmHg 92%
    05:00 +8°C° 0 mm 2 mps 750 mmHg 94%
    06:00 +8°C° 0 mm 2 mps 750 mmHg 93%
    07:00 +9°C° 0 mm 1 mps 751 mmHg 93%
    08:00 +9°C° 0 mm 1 mps 751 mmHg 93%
    09:00 +10°C° 0.1 mm 1 mps 751 mmHg 91%
    10:00 +10°C° 0.1 mm 1 mps 751 mmHg 89%
    11:00 +10°C° 0.1 mm 1 mps 751 mmHg 88%
    12:00 +10°C° 0.5 mm 1 mps 751 mmHg 90%
    13:00 +10°C° 0.5 mm 1 mps 751 mmHg 92%
    14:00 +10°C° 0.5 mm 1 mps 751 mmHg 94%
    15:00 +9°C° 0.1 mm 1 mps 751 mmHg 95%
    16:00 +9°C° 0.1 mm 1 mps 751 mmHg 96%
    17:00 +9°C° 0.1 mm 1 mps 751 mmHg 96%
    18:00 +9°C° 0 mm 1 mps 752 mmHg 96%
    19:00 +9°C° 0 mm 1 mps 752 mmHg 96%
    20:00 +9°C° 0 mm 1 mps 752 mmHg 96%
    21:00 +8°C° 0 mm 1 mps 752 mmHg 95%
    22:00 +8°C° 0 mm 1 mps 752 mmHg 95%
    23:00 +8°C° 0 mm 1 mps 752 mmHg 94%

    Tomorrow, 25 October, Friday

    Time Temperature Precipitation Wind Pressure Humidity
    00:00 +8°C° 0 mm 1 mps 752 mmHg 95%
    01:00 +6°C° 0 mm 2 mps 752 mmHg 95%
    02:00 +6°C° 0 mm 2 mps 752 mmHg 95%
    03:00 +5°C° 0 mm 2 mps 752 mmHg 96%
    04:00 +5°C° 0 mm 2 mps 752 mmHg 96%
    05:00 +5°C° 0 mm 2 mps 752 mmHg 96%
    06:00 +5°C° 0 mm 2 mps 752 mmHg 95%
    07:00 +5°C° 0 mm 2 mps 752 mmHg 95%
    08:00 +6°C° 0 mm 2 mps 752 mmHg 94%
    09:00 +7°C° 0 mm 2 mps 752 mmHg 90%
    10:00 +8°C° 0 mm 3 mps 752 mmHg 85%
    11:00 +9°C° 0 mm 3 mps 752 mmHg 81%
    12:00 +9°C° 0 mm 3 mps 752 mmHg 80%
    13:00 +10°C° 0 mm 3 mps 752 mmHg 78%
    14:00 +10°C° 0 mm 3 mps 751 mmHg 77%
    15:00 +9°C° 0 mm 3 mps 751 mmHg 82%
    16:00 +8°C° 0 mm 3 mps 750 mmHg 86%
    17:00 +7°C° 0 mm 3 mps 750 mmHg 90%
    18:00 +7°C° 0 mm 3 mps 749 mmHg 90%
    19:00 +6°C° 0 mm 4 mps 749 mmHg 90%
    20:00 +6°C° 0 mm 4 mps 749 mmHg 90%
    21:00 +6°C° 0 mm 5 mps 748 mmHg 88%
    22:00 +6°C° 0 mm 5 mps 747 mmHg 86%
    23:00 +6°C° 0 mm 5 mps 747 mmHg 85%

    Day after tomorrow, 26 October, Saturday

    Time Temperature Precipitation Wind Pressure Humidity
    00:00 +6°C° 0 mm 5 mps 746 mmHg 86%
    01:00 +6°C° 0 mm 5 mps 746 mmHg 88%
    02:00 +6°C° 0 mm 4 mps 746 mmHg 89%
    03:00 +7°C° 0 mm 4 mps 745 mmHg 90%
    04:00 +7°C° 0 mm 5 mps 745 mmHg 91%
    05:00 +8°C° 0 mm 5 mps 745 mmHg 91%
    06:00 +8°C° 0 mm 5 mps 745 mmHg 91%
    07:00 +8°C° 0 mm 5 mps 745 mmHg 90%
    08:00 +9°C° 0 mm 5 mps 745 mmHg 90%
    09:00 +9°C° 0 mm 5 mps 745 mmHg 85%
    10:00 +10°C° 0 mm 6 mps 745 mmHg 80%
    11:00 +10°C° 0 mm 6 mps 745 mmHg 75%
    12:00 +10°C° 0 mm 6 mps 745 mmHg 74%
    13:00 +10°C° 0 mm 6 mps 745 mmHg 73%
    14:00 +10°C° 0 mm 5 mps 745 mmHg 71%
    15:00 +9°C° 0 mm 5 mps 744 mmHg 74%
    16:00 +9°C° 0 mm 5 mps 744 mmHg 76%
    17:00 +8°C° 0 mm 4 mps 744 mmHg 78%
    18:00 +8°C° 0 mm 5 mps 743 mmHg 79%
    19:00 +8°C° 0 mm 5 mps 743 mmHg 80%
    20:00 +8°C° 0 mm 5 mps 742 mmHg 81%
    21:00 +8°C° 0.4 mm 6 mps 742 mmHg 83%
    22:00 +8°C° 0.4 mm 6 mps 741 mmHg 84%
    23:00 +8°C° 0.4 mm 6 mps 740 mmHg 86%

    , 27 October, Sunday

    Time Temperature Precipitation Wind Pressure Humidity
    00:00 +9°C° 0.3 mm 7 mps 739 mmHg 85%
    01:00 +9°C° 0.3 mm 7 mps 738 mmHg 85%
    02:00 +10°C° 0.3 mm 7 mps 738 mmHg 84%
    03:00 +10°C° 0.2 mm 7 mps 738 mmHg 85%
    04:00 +10°C° 0.2 mm 6 mps 738 mmHg 85%
    05:00 +11°C° 0.2 mm 6 mps 738 mmHg 86%
    06:00 +10°C° 0.2 mm 5 mps 738 mmHg 86%
    07:00 +11°C° 0.2 mm 4 mps 739 mmHg 86%
    08:00 +10°C° 0.2 mm 3 mps 739 mmHg 87%
    09:00 +10°C° 0.1 mm 3 mps 739 mmHg 87%
    10:00 +9°C° 0.1 mm 3 mps 740 mmHg 87%
    11:00 +9°C° 0.1 mm 2 mps 740 mmHg 88%
    12:00 +9°C° 0.1 mm 2 mps 740 mmHg 89%
    13:00 +9°C° 0.1 mm 2 mps 740 mmHg 91%
    14:00 +9°C° 0.1 mm 2 mps 740 mmHg 92%
    15:00 +10°C° 0.1 mm 3 mps 739 mmHg 91%
    16:00 +10°C° 0.1 mm 4 mps 738 mmHg 90%
    17:00 +10°C° 0.1 mm 4 mps 738 mmHg 89%
    18:00 +10°C° 0.1 mm 5 mps 737 mmHg 87%
    19:00 +10°C° 0.1 mm 5 mps 736 mmHg 85%
    20:00 +10°C° 0.1 mm 6 mps 736 mmHg 84%
    21:00 +10°C° 0 mm 6 mps 735 mmHg 82%
    22:00 +11°C° 0 mm 6 mps 735 mmHg 81%
    23:00 +11°C° 0 mm 6 mps 734 mmHg 80%

    27 October, Sunday

    Time Temperature Precipitation Wind Pressure Humidity
    00:00 +9°C° 0.3 mm 7 mps 739 mmHg 85%
    01:00 +9°C° 0.3 mm 7 mps 738 mmHg 85%
    02:00 +10°C° 0.3 mm 7 mps 738 mmHg 84%
    03:00 +10°C° 0.2 mm 7 mps 738 mmHg 85%
    04:00 +10°C° 0.2 mm 6 mps 738 mmHg 85%
    05:00 +11°C° 0.2 mm 6 mps 738 mmHg 86%
    06:00 +10°C° 0.2 mm 5 mps 738 mmHg 86%
    07:00 +11°C° 0.2 mm 4 mps 739 mmHg 86%
    08:00 +10°C° 0.2 mm 3 mps 739 mmHg 87%
    09:00 +10°C° 0.1 mm 3 mps 739 mmHg 87%
    10:00 +9°C° 0.1 mm 3 mps 740 mmHg 87%
    11:00 +9°C° 0.1 mm 2 mps 740 mmHg 88%
    12:00 +9°C° 0.1 mm 2 mps 740 mmHg 89%
    13:00 +9°C° 0.1 mm 2 mps 740 mmHg 91%
    14:00 +9°C° 0.1 mm 2 mps 740 mmHg 92%
    15:00 +10°C° 0.1 mm 3 mps 739 mmHg 91%
    16:00 +10°C° 0.1 mm 4 mps 738 mmHg 90%
    17:00 +10°C° 0.1 mm 4 mps 738 mmHg 89%
    18:00 +10°C° 0.1 mm 5 mps 737 mmHg 87%
    19:00 +10°C° 0.1 mm 5 mps 736 mmHg 85%
    20:00 +10°C° 0.1 mm 6 mps 736 mmHg 84%
    21:00 +10°C° 0 mm 6 mps 735 mmHg 82%
    22:00 +11°C° 0 mm 6 mps 735 mmHg 81%
    23:00 +11°C° 0 mm 6 mps 734 mmHg 80%

    28 October, Monday

    Time Temperature Precipitation Wind Pressure Humidity
    00:00 +11°C° 0 mm 6 mps 734 mmHg 78%
    01:00 +10°C° 0 mm 6 mps 734 mmHg 76%
    02:00 +10°C° 0 mm 6 mps 734 mmHg 74%
    03:00 +9°C° 0 mm 6 mps 734 mmHg 73%
    04:00 +8°C° 0 mm 6 mps 734 mmHg 71%
    05:00 +7°C° 0 mm 6 mps 733 mmHg 70%
    06:00 +6°C° 0 mm 7 mps 734 mmHg 69%
    07:00 +5°C° 0 mm 7 mps 734 mmHg 69%
    08:00 +5°C° 0 mm 8 mps 734 mmHg 68%
    09:00 +5°C° 0 mm 8 mps 734 mmHg 67%
    10:00 +5°C° 0 mm 8 mps 735 mmHg 66%
    11:00 +4°C° 0 mm 8 mps 735 mmHg 65%
    12:00 +4°C° 0 mm 8 mps 736 mmHg 66%
    13:00 +4°C° 0 mm 7 mps 736 mmHg 67%
    14:00 +3°C° 0 mm 7 mps 737 mmHg 67%
    15:00 +3°C° 0 mm 7 mps 738 mmHg 69%
    16:00 +2°C° 0 mm 6 mps 738 mmHg 71%
    17:00 +1°C° 0 mm 5 mps 739 mmHg 72%
    18:00 0°C° 0 mm 5 mps 740 mmHg 72%
    19:00 0°C° 0 mm 5 mps 741 mmHg 72%
    20:00 -1°C° 0 mm 4 mps 742 mmHg 72%
    21:00 -1°C° 0 mm 4 mps 743 mmHg 75%
    22:00 -1°C° 0 mm 3 mps 743 mmHg 79%
    23:00 -1°C° 0 mm 3 mps 744 mmHg 82%

    29 October, Tuesday

    Time Temperature Precipitation Wind Pressure Humidity
    00:00 -2°C° 0 mm 2 mps 745 mmHg 83%
    01:00 -2°C° 0 mm 2 mps 746 mmHg 85%
    02:00 -2°C° 0 mm 2 mps 746 mmHg 86%
    03:00 -2°C° 0 mm 2 mps 747 mmHg 86%
    04:00 -2°C° 0 mm 2 mps 747 mmHg 86%
    05:00 -3°C° 0 mm 2 mps 748 mmHg 85%
    06:00 -2°C° 0 mm 2 mps 749 mmHg 83%
    07:00 -2°C° 0 mm 2 mps 749 mmHg 81%
    08:00 0°C° 0 mm 1 mps 750 mmHg 79%
    09:00 +1°C° 0 mm 1 mps 750 mmHg 72%
    10:00 +1°C° 0 mm 1 mps 751 mmHg 65%
    11:00 +2°C° 0 mm 1 mps 752 mmHg 58%
    12:00 +2°C° 0 mm 1 mps 752 mmHg 56%
    13:00 +2°C° 0 mm 1 mps 752 mmHg 53%
    14:00 +2°C° 0 mm 1 mps 752 mmHg 51%
    15:00 +1°C° 0 mm 1 mps 753 mmHg 55%
    16:00 +1°C° 0 mm 1 mps 753 mmHg 59%
    17:00 0°C° 0 mm 1 mps 753 mmHg 63%
    18:00 0°C° 0 mm 1 mps 753 mmHg 65%
    19:00 -1°C° 0 mm 1 mps 754 mmHg 66%
    20:00 -1°C° 0 mm 1 mps 754 mmHg 68%
    21:00 -1°C° 0 mm 1 mps 755 mmHg 70%
    22:00 -1°C° 0 mm 1 mps 755 mmHg 71%
    23:00 -1°C° 0 mm 1 mps 755 mmHg 72%
    Show more